Lexington Weather

Lexington, Massachusetts, USA

47°F
10/22/2019 3:07am 
  • Lexington Conditions: Haze, Overcast
  • Temperature: 47.3°F / 8.5°CWarmer 1.1°F than last hour.
  • Dew Point: 45.9°FIncreased 1.3°Fsince last hour.
  • Relative Humidity: 95%Increased 1.0% since last hour.
  • Wind: Calm, 10-min avg: Calm, gust: None
  • Barometer: 30.12 in Steady
  • Visibility: 1½ miles
  • Rain Today: 0.00 in
  •   

Regional Weather Roundup
for Boston, MA

        
000
ASUS41 KBOX 201710
RWRBOX

REGIONAL WEATHER ROUNDUP
NATIONAL WEATHER SERVICE BOSTON/NORTON MA
100 PM EDT SUN OCT 20 2019

NOTE:  "FAIR" INDICATES FEW OR NO CLOUDS BELOW 12,000 FEET WITH NO 
SIGNIFICANT WEATHER AND/OR OBSTRUCTIONS TO VISIBILITY.

MAZALL-201800-
EASTERN MASSACHUSETTS
  
CITY           SKY/WX    TMP DP  RH WIND       PRES   REMARKS
BOSTON         PTSUNNY   59  48  67 E6        30.08F                  
BEVERLY        FAIR      58  42  55 CALM      30.08F                  
LAWRENCE       FAIR      60  41  49 SE5       30.10F                  
BEDFORD        PTSUNNY   61  41  47 CALM      30.06F                  
BLUE HILL      NOT AVBL                                               
NORWOOD        FAIR      63  42  46 CALM      30.07F                  
MARSHFIELD     FAIR      61  48  63 SE9       30.07F                  
PLYMOUTH       FAIR      62  45  53 VRB3      30.08F                  
TAUNTON        FAIR      63  45  51 VRB3      30.07F                  
NEW BEDFORD    FAIR      61  48  62 SE10      30.06F                  
$$

MAZALL-201800-
CAPE COD AND THE ISLANDS
  
CITY           SKY/WX    TMP DP  RH WIND       PRES   REMARKS
FALMOUTH       SUNNY     61  46  59 S9        30.07F                  
HYANNIS        FAIR      61  46  57 S7        30.07F                  
CHATHAM        NOT AVBL                                               
PROVINCETOWN   FAIR      60  49  66 S7          N/A                   
NANTUCKET      FAIR      58  48  69 SE9       30.09F                  
MARTHAS VNYRD  FAIR      60  44  55 S9        30.08F                  
$$
 
MAZALL-201800-
CENTRAL AND WESTERN MASSACHUSETTS
  
CITY           SKY/WX    TMP DP  RH WIND       PRES   REMARKS
WORCESTER      FAIR      54  40  59 S6        30.07F                  
FITCHBURG      FAIR      57  39  51 CALM      30.08F                  
ORANGE         FAIR      58  39  49 S9        30.07F                  
SPRINGFIELD    CLOUDY    57  40  53 W6        30.06S                  
WESTFIELD      FAIR      55  39  54 CALM      30.07F                  
NORTH ADAMS    FAIR      57  36  45 W7        30.03F                  
PITTSFIELD     FAIR      56  37  49 VRB6      30.03F                  
$$
 
RIZALL-201800-
RHODE ISLAND
  
CITY           SKY/WX    TMP DP  RH WIND       PRES   REMARKS
PROVIDENCE     PTSUNNY   59  38  45 S6        30.08F                  
NEWPORT        FAIR      60  45  57 S8        30.07F                  
BLOCK ISLAND   FAIR      59  46  62 SE8       30.08S                  
SMITHFIELD     FAIR     N/A N/A N/A VRB3      30.07F                  
WESTERLY       FAIR      61  50  67 SE7       30.08F                  
$$
 
CTZALL-201800-
CONNECTICUT
  
CITY           SKY/WX    TMP DP  RH WIND       PRES   REMARKS
BRADLEY INTL   CLOUDY    56  40  55 CALM      30.08S                  
HARTFORD       FAIR      54  42  64 S3        30.08S                  
BRIDGEPORT     CLOUDY    58  50  75 NE8       30.06F                  
DANBURY        PTSUNNY   54  43  66 NE3       30.07F                  
GROTON         FAIR      60  50  69 E7        30.07F                  
NEW HAVEN      FAIR      62  52  69 E8        30.06F                  
CHESTER        FAIR      59  48  67 SE6       30.07S                  
MERIDEN        FAIR      55  42  61 CALM      30.07S                  
WILLIMANTIC    FAIR      58  45  62 VRB5      30.09S                  
OXFORD         PTSUNNY   55  48  77 SE7       30.07S                  
$$

MEZ002-015-021-024-NHZ003-005-008-011-012-014-VTZ005-008-201800-
NORTHERN NEW ENGLAND
  
CITY           SKY/WX    TMP DP  RH WIND       PRES   REMARKS
PORTLAND ME    CLOUDY    52  41  66 E6        30.12F                  
BANGOR ME      PTSUNNY   55  37  50 VRB3      30.10S                  
CONCORD NH     FAIR      55  39  54 S5        30.08F                  
MANCHESTER NH  PTSUNNY   59  41  51 CALM      30.07F                  
NASHUA NH      FAIR      57  41  55 VRB5      30.08F                  
PORTSMOUTH NH  PTSUNNY   57  43  61 E7        30.08F                  
JAFFREY NH     FAIR      57  37  47 S6        30.06F                  
KEENE NH       FAIR      55  38  52 CALM      30.07F                  
BURLINGTON VT  CLOUDY    53  39  59 SE7       30.01F                  
MT. WASHINGTON CLOUDY    39  18  41 SW14        N/A  WCI  31          
$$

NYZ052-076-201800-
EASTERN NEW YORK
  
CITY           SKY/WX    TMP DP  RH WIND       PRES   REMARKS
ALBANY         CLOUDY    53  40  61 S8        30.05F                  
NEW YORK CITY  LGT RAIN  58  49  72 NE6       30.04S                  
$$
 
ANZALL-201800-
MARINE OBSERVATIONS
  
STATION/POSITION TIME  TEMP    WIND        PRES    VSBY  WAVE
                       AIR SEA DIR/SP/G                  HT/PER
                 (UTC) (F)     (DEG/KT/KT) (MB)    (MI)  (FT/S)
BOSTON BUOY      1650   55 57  100/  4/  4 1018.0F         1/15
BUZZARDS BAY     1600   57     170/ 10/ 11 1019.4F
NANTUCKET SOUND  1640      57                N/A           1
MASS BAY-STELLWA 1604   56 57  180/  4/  4 1019.2R  1 7/8  1/ 8
ISLE OF SHOALS   1600   53      50/  8/  9 1019.0F
S OF BLOCK IS    1700      60                N/A           1/13
$$

......................KEY.........................
  SKY/WX - SKY CONDITION/PRESENT WEATHER
  TMP    - TEMPERATURE IN FAHRENHEIT
  DWPT   - DEWPOINT IN FAHRENHEIT
  RH     - RELATIVE HUMIDITY IN PERCENT
  WIND   - DIRECTION AND SPEED IN MPH
  PRES   - MEAN SEA LEVEL PRESSURE IN INCHES OF HG
  WCI    - WIND CHILL INDEX
  VSB    - VISIBILITY IN MILES
  HX     - HEAT INDEX
  TC     - TEMPERATURE IN CELSIUS
  VRB    - VARIABLE WIND DIRECTION
  N/A    - NOT AVAILABLE
  
      

Other recent Regional Weather Roundups

Tue Oct 22, 2:10am

Tue Oct 22, 2:00am

Tue Oct 22, 1:10am

Tue Oct 22, 1:00am

Tue Oct 22, 12:10am

Tue Oct 22, 12:00am

Mon Oct 21, 11:10pm

Mon Oct 21, 11:00pm

Mon Oct 21, 10:10pm

Mon Oct 21, 10:01pm

Mon Oct 21, 9:10pm

Mon Oct 21, 9:00pm

Mon Oct 21, 8:10pm

Mon Oct 21, 8:00pm

Mon Oct 21, 7:10pm

Mon Oct 21, 7:01pm

Mon Oct 21, 6:10pm

Mon Oct 21, 6:01pm

Mon Oct 21, 5:10pm

Mon Oct 21, 5:01pm

Mon Oct 21, 4:10pm

Mon Oct 21, 4:00pm

Mon Oct 21, 3:10pm

Mon Oct 21, 3:01pm

Mon Oct 21, 2:10pm

Mon Oct 21, 2:00pm

Mon Oct 21, 1:10pm

Mon Oct 21, 1:01pm

Mon Oct 21, 12:10pm

Mon Oct 21, 12:00pm

Mon Oct 21, 11:10am

Mon Oct 21, 11:00am

Mon Oct 21, 10:10am

Mon Oct 21, 10:00am

Mon Oct 21, 9:10am

Mon Oct 21, 9:00am

Mon Oct 21, 7:10am

Mon Oct 21, 7:00am

Mon Oct 21, 6:10am

Mon Oct 21, 6:00am

Mon Oct 21, 5:10am

Mon Oct 21, 5:00am

Mon Oct 21, 4:10am

Mon Oct 21, 4:00am

Mon Oct 21, 3:10am

Mon Oct 21, 3:00am

Mon Oct 21, 2:10am

Mon Oct 21, 2:01am

Mon Oct 21, 1:10am

Mon Oct 21, 1:00am

Mon Oct 21, 12:10am

Mon Oct 21, 12:00am

Sun Oct 20, 11:10pm

Sun Oct 20, 11:00pm

Sun Oct 20, 10:10pm

Sun Oct 20, 10:00pm

Sun Oct 20, 9:10pm

Sun Oct 20, 9:01pm

Sun Oct 20, 8:10pm

Sun Oct 20, 8:00pm

Sun Oct 20, 7:10pm

Sun Oct 20, 7:01pm

Sun Oct 20, 6:10pm

Sun Oct 20, 6:00pm

Sun Oct 20, 5:10pm

Sun Oct 20, 5:00pm

Sun Oct 20, 4:10pm

Sun Oct 20, 4:00pm

Sun Oct 20, 3:10pm

Sun Oct 20, 3:00pm

Sun Oct 20, 2:10pm

Sun Oct 20, 2:01pm

Sun Oct 20, 1:01pm

Sun Oct 20, 12:10pm

Sun Oct 20, 12:00pm

Sun Oct 20, 11:10am

Sun Oct 20, 11:00am

Sun Oct 20, 10:10am

Sun Oct 20, 10:00am

Sun Oct 20, 9:10am

Sun Oct 20, 9:00am

Sun Oct 20, 8:10am

Sun Oct 20, 8:00am

Sun Oct 20, 7:10am

Sun Oct 20, 7:00am

Sun Oct 20, 6:10am

Sun Oct 20, 6:00am

Sun Oct 20, 5:10am

Sun Oct 20, 5:00am

Sun Oct 20, 4:10am

Sun Oct 20, 4:00am

Sun Oct 20, 3:10am

Sun Oct 20, 3:00am

Sun Oct 20, 2:10am

Sun Oct 20, 2:00am

Sun Oct 20, 1:10am

Sun Oct 20, 1:00am

Sun Oct 20, 12:10am

Sun Oct 20, 12:00am

Sat Oct 19, 11:10pm

Sat Oct 19, 11:00pm

Sat Oct 19, 10:10pm

Sat Oct 19, 10:00pm

Sat Oct 19, 9:10pm

Sat Oct 19, 9:00pm

Sat Oct 19, 8:10pm

Sat Oct 19, 8:00pm

Sat Oct 19, 7:10pm

Sat Oct 19, 7:00pm

Sat Oct 19, 6:10pm

Sat Oct 19, 6:00pm

Sat Oct 19, 5:10pm

Sat Oct 19, 5:00pm

Sat Oct 19, 4:10pm

Sat Oct 19, 4:00pm

Sat Oct 19, 3:10pm

Sat Oct 19, 3:01pm

Sat Oct 19, 2:10pm

Sat Oct 19, 2:00pm

Sat Oct 19, 1:10pm

Sat Oct 19, 1:01pm

Sat Oct 19, 12:10pm

Sat Oct 19, 12:00pm

Sat Oct 19, 11:10am

Sat Oct 19, 11:01am

Sat Oct 19, 10:10am

Sat Oct 19, 10:00am

Sat Oct 19, 9:10am

Sat Oct 19, 9:00am

Sat Oct 19, 8:10am

Sat Oct 19, 8:00am

Sat Oct 19, 7:10am

Sat Oct 19, 7:00am

Sat Oct 19, 6:10am

Sat Oct 19, 6:00am

Sat Oct 19, 5:10am

Sat Oct 19, 5:00am

Sat Oct 19, 4:10am

Sat Oct 19, 4:00am

Sat Oct 19, 3:10am

Sat Oct 19, 3:00am

Meta data:

ID: b10a5900-fdb7-4e81-b4dd-f54bea1f9b87
Link: https://api.weather.gov/products/b10a5900-fdb7-4e81-b4dd-f54bea1f9b87